Location: Allonne
(49.4086°N, 2.1143°E)
Time: 21:39:45
(UTC+00:00)

BlueWalker 3 - Visible Passes

Search period start: 10 June 2023 00:00
Search period end: 20 June 2023 00:00
Orbit: 493 x 513 km, 53.2° (Epoch: 09 June)

Date Brightness Start Highest point End Pass type
(mag) Time Alt. Az. Time Alt. Az. Time Alt. Az.
10 Jun 2.4 20:39:01 10° WNW 20:42:50 62° NNE 20:46:41 10° E visible
10 Jun 2.5 22:17:39 10° WNW 22:21:18 41° SW 22:22:42 29° SSE visible
11 Jun 2.6 21:57:11 10° WNW 22:00:49 40° SW 22:02:39 24° SSE visible
12 Jun 2.6 21:36:42 10° WNW 21:40:19 39° SW 21:42:39 19° SSE visible
13 Jun 2.7 21:16:13 10° WNW 21:19:49 38° SW 21:22:42 15° SSE visible
14 Jun 2.8 20:55:44 10° WNW 20:59:18 37° SW 21:02:47 11° SSE visible
